1383955233905,61.8374
1383955293905,62.0964
1383955353905,61.8237
1383955413905,62.1564
1383955473905,62.0188
1383955533905,62.1557
1383955593905,62.1980
1383955653905,62.1971
1383955713905,62.2136
1383955773905,62.2116
1383955833905,61.9757
1383955893905,62.2427
1383955953905,62.1615
1383956013905,62.1068
1383956073905,62.0717
1383956133905,62.2810
1383956193905,62.3151
1383956253905,62.1723
1383956313905,62.4512
1383956373905,62.1553
1383956433905,62.5108
1383956493905,62.5339
1383956553905,62.3890
1383956613905,62.2629
1383956673905,62.3963
1383956733905,62.3331
1383956793905,62.3226
1383956853905,62.2393
1383956913905,62.3401
1383956973905,62.3626
1383957033905,62.5352
1383957093905,62.1740
1383957153905,62.4367
1383957213905,62.4500
1383957273905,62.3951
1383957333905,62.4445
1383957393905,62.4995
1383957453905,62.3586
1383957513905,62.4073
1383957573905,62.5325
1383957633905,62.3584
1383957693905,62.3593
1383957753905,62.5344
1383957813905,62.5342
1383957873905,62.5138
1383957933905,62.6158
1383957993905,62.5629
1383958053905,62.7438
1383958113905,62.5146
1383958173905,62.6526
1383958233905,62.6379
1383958293905,62.8573
1383958353905,62.6540
1383958413905,62.3515
1383958473905,62.6063
1383958533905,62.6401
1383958593905,62.8461
1383958653905,62.8036
1383958713905,62.8337
1383958773905,62.8255
1383958833915,62.6837
1383958893915,62.8272
1383958953915,62.7419
1383959013915,62.7758
1383959073915,62.7834
1383959133915,62.7633
1383959193915,62.7629
1383959253915,62.7834
1383959313915,62.9085
1383959373915,62.9347
1383959433915,62.9357
1383959493915,62.7713
1383959553915,62.8126
1383959613915,62.7188
1383959673915,62.8833
1383959733915,62.7889
1383959793915,62.5567
1383959853915,63.0140
1383959913915,62.8560
1383959973915,62.7526
1383960033915,62.8543
1383960093915,62.8960
1383960153915,62.9213
1383960213915,62.8334
1383960273915,62.8008
1383960333915,62.9463
1383960393915,62.6983
1383960453915,62.5135
1383960513915,62.6644
1383960573915,62.7145
1383960633915,62.7680
1383960693915,62.7301
1383960753915,62.7987
1383960813915,62.6837
1383960873915,62.5918
1383960933915,62.6502
1383960993915,62.5894
1383961053915,62.6716
1383961113915,62.5681
1383961173915,62.5326
1383961233915,62.4402
1383961293915,62.6574
1383961353915,62.7194
1383961413915,62.8338
1383961473915,62.7672
1383961533915,62.8030
1383961593915,62.7398
1383961653915,62.6579
1383961713915,62.6643
1383961773915,62.7603
1383961833915,62.6695
1383961893915,62.5728
1383961953915,62.6757
1383962013915,62.6345
1383962073915,62.5378
1383962133915,62.5081
1383962193915,62.6595
1383962253915,62.5174
1383962313915,62.4831
1383962373915,62.6692
1383962433925,62.5114
1383962493925,62.5733
1383962553925,62.6073
1383962613925,62.5838
1383962673925,62.5170
1383962733925,62.4263
1383962793925,62.6143
1383962853925,62.5755
1383962913925,62.4364
1383962973925,62.2957
1383963033925,62.2300
1383963093925,62.4211
1383963153925,62.3552
1383963213925,62.3756
1383963273925,62.3911
1383963333925,62.5219
1383963393925,62.4571
1383963453925,62.5188
1383963513925,62.2708
1383963573925,62.3665
1383963633925,62.5838
1383963693925,62.5970
1383963753925,62.4333
1383963813925,62.2721
1383963873925,62.3534
1383963933925,62.4636
1383963993925,62.5975
1383964053925,62.5322
1383964113925,62.3134
1383964173925,62.3983
1383964233925,62.4769
1383964293925,62.5990
1383964353925,62.2958
1383964413925,62.4973
1383964473925,62.5409
1383964533925,62.2277
1383964593925,62.3579
1383964653925,62.5230
1383964713925,62.5712
1383964773925,62.3465
1383964833925,62.3464
1383964893925,62.4224
1383964953925,62.6010
1383965013925,62.3636
1383965073925,62.3619
1383965133925,62.5251
1383965193925,62.3072
1383965253925,62.4265
1383965313925,62.4672
1383965373925,62.4486
1383965433925,62.2248
1383965493925,62.4018
1383965553925,62.5633
1383965613925,62.4389
1383965673925,62.5166
1383965733925,62.5055
1383965793925,62.5147
1383965853925,62.3921
1383965913925,62.3845
1383965973925,62.3742
1383966033934,62.4492
1383966093934,62.2949
1383966153934,62.4260
1383966213934,62.4844
1383966273934,62.5297
1383966333934,62.4318
1383966393934,62.5506
1383966453934,62.4890
1383966513934,62.4024
1383966573934,62.5021
1383966633934,62.6483
1383966693934,62.4047
1383966753934,62.4067
1383966813934,62.5195
1383966873934,62.5692
1383966933934,62.3287
1383966993934,62.4523
1383967053934,62.5644
1383967113934,62.6632
1383967173934,62.3539
1383967233934,62.5498
1383967293934,62.7007
1383967353934,62.5714
1383967413934,62.4293
1383967473934,62.6287
1383967533934,62.5122
1383967593934,62.5772
1383967653934,62.6268
1383967713934,62.5962
1383967773934,62.4866
1383967833934,62.4795
1383967893934,62.5527
1383967953934,62.6160
1383968013934,62.6254
1383968073934,62.6150
1383968133934,62.5436
1383968193934,62.6098
1383968253934,62.5312
1383968313934,62.6504
1383968373934,62.5288
1383968433934,62.6516
1383968493934,62.6911
1383968553934,62.7548
1383968613934,62.5029
1383968673934,62.5662
1383968733934,62.6193
1383968793934,62.7660
1383968853934,62.6493
1383968913934,62.6336
1383968973934,62.8957
1383969033934,62.6707
1383969093934,62.6563
1383969153934,62.6516
1383969213934,62.7590
1383969273934,62.6480
1383969333934,62.8813
1383969393934,62.7267
1383969453934,62.7239
1383969513934,62.7835
1383969573934,62.6077
1383969633944,62.6917
1383969693944,62.9132
1383969753944,62.5929
1383969813944,62.7016
1383969873944,62.7061
1383969933944,62.4646
1383969993944,62.7111
1383970053944,62.5403
1383970113944,62.7070
1383970173944,62.7932
1383970233944,62.6385
1383970293944,62.7598
1383970353944,62.6720
1383970413944,62.7414
1383970473944,62.6548
1383970533944,62.8228
1383970593944,62.6964
1383970653944,62.7936
1383970713944,62.4386
1383970773944,62.7654
1383970833944,62.7532
1383970893944,62.5892
1383970953944,62.6439
1383971013944,62.8508
1383971073944,62.6241
1383971133944,62.7294
1383971193944,62.7749
1383971253944,62.8215
1383971313944,62.7863
1383971373944,62.7081
1383971433944,62.7726
1383971493944,62.7597
1383971553944,62.6812
1383971613944,62.6896
1383971673944,62.7668
1383971733944,62.8778
1383971793944,62.7731
1383971853944,62.8445
1383971913944,62.7288
1383971973944,62.8605
1383972033944,62.7901
1383972093944,62.9174
1383972153944,62.8895
1383972213944,62.9979
1383972273944,62.8612
1383972333944,62.7974
1383972393944,62.8717
1383972453944,62.7170
1383972513944,62.8563
1383972573944,62.8596
1383972633944,62.8129
1383972693944,62.8445
1383972753944,62.7196
1383972813944,62.8028
1383972873944,62.8999
1383972933944,62.8348
1383972993944,62.6942
1383973053944,62.6863
1383973113944,62.8854
1383973173944,62.8810
1383973233954,62.7447
1383973293954,62.7632
1383973353954,62.8595
1383973413954,63.0095
1383973473954,62.8335
1383973533954,62.7563
1383973593954,62.8736
1383973653954,62.9713
1383973713954,62.9805
1383973773954,62.8869
1383973833954,62.9666
1383973893954,62.7173
1383973953954,62.8398
1383974013954,62.8549
1383974073954,62.9733
1383974133954,62.9135
1383974193954,62.6413
1383974253954,62.7319
1383974313954,62.8773
1383974373954,62.7785
1383974433954,62.6861
1383974493954,62.7386
1383974553954,62.6699
1383974613954,62.6022
1383974673954,62.9687
1383974733954,62.7803
1383974793954,62.8415
1383974853954,62.6560
1383974913954,62.6334
1383974973954,62.8358
1383975033954,62.8746
1383975093954,62.8429
1383975153954,62.8443
1383975213954,62.8901
1383975273954,62.5593
1383975333954,62.8129
1383975393954,62.8371
1383975453954,62.8128
1383975513954,62.8269
1383975573954,62.6649
1383975633954,62.6902
1383975693954,62.7554
1383975753954,62.8214
1383975813954,62.8057
1383975873954,62.9192
1383975933954,62.7303
1383975993954,62.9145
1383976053954,62.8287
1383976113954,62.7081
1383976173954,62.7350
1383976233954,62.7817
1383976293954,62.8336
1383976353954,62.7163
1383976413954,62.5935
1383976473954,62.7878
1383976533954,62.8223
1383976593954,62.7906
1383976653954,62.9045
1383976713954,62.7491
1383976773954,62.7449
1383976833964,62.6878
1383976893964,62.7410
1383976953964,62.6532
1383977013964,62.6812
1383977073964,62.5564
1383977133964,62.6094
1383977193964,62.7279
1383977253964,62.6900
1383977313964,62.7054
1383977373964,62.6844
1383977433964,62.7940
1383977493964,62.6762
1383977553964,62.6842
1383977613964,62.6983
1383977673964,62.6256
1383977733964,62.7412
1383977793964,62.6041
1383977853964,62.7287
1383977913964,62.6349
1383977973964,62.8936
1383978033964,62.6846
1383978093964,62.6517
1383978153964,62.6022
1383978213964,62.6356
1383978273964,62.5546
1383978333964,62.8592
1383978393964,62.8424
1383978453964,62.8940
1383978513964,63.0814
1383978573964,62.7392
1383978633964,62.6977
1383978693964,62.8307
1383978753964,62.9076
1383978813964,62.7346
1383978873964,62.8611
1383978933964,62.8936
1383978993964,62.9177
1383979053964,62.8635
1383979113964,62.8898
1383979173964,62.8602
1383979233964,63.0076
1383979293964,62.7617
1383979353964,62.8456
1383979413964,62.9209
1383979473964,63.1074
1383979533964,62.7776
1383979593964,62.9130
1383979653964,62.9467
1383979713964,62.9055
1383979773964,62.8639
1383979833964,62.8358
1383979893964,62.6611
1383979953964,62.6829
1383980013964,62.8996
1383980073964,63.0538
1383980133964,62.8608
1383980193964,62.7586
1383980253964,62.8445
1383980313964,62.8222
1383980373964,62.6441
1383980433974,62.7071
1383980493974,62.9364
1383980553974,62.7844
1383980613974,63.0254
1383980673974,62.8272
1383980733974,62.8002
1383980793974,62.9236
1383980853974,62.7917
1383980913974,62.8031
1383980973974,62.9996
1383981033974,62.8056
1383981093974,63.1072
1383981153974,62.9315
1383981213974,62.7594
1383981273974,62.8591
1383981333974,62.7573
1383981393974,62.6909
1383981453974,62.8535
1383981513974,62.7073
1383981573974,62.7935
1383981633974,62.7579
1383981693974,62.6355
1383981753974,62.6982
1383981813974,62.8066
1383981873974,62.7644
1383981933974,62.8619
1383981993974,62.7132
1383982053974,62.8194
1383982113974,62.5525
1383982173974,62.8445
1383982233974,62.9807
1383982293974,62.7986
1383982353974,62.8147
1383982413974,62.8447
1383982473974,62.9335
1383982533974,62.8095
1383982593974,62.9028
1383982653974,62.7325
1383982713974,63.0754
1383982773974,62.7728
1383982833974,62.7252
1383982893974,62.8529
1383982953974,62.7733
1383983013974,62.6907
1383983073974,62.8101
1383983133974,62.8666
1383983193974,62.7171
1383983253974,62.8386
1383983313974,63.0212
1383983373974,62.6547
1383983433974,62.9123
1383983493974,62.9022
1383983553974,62.7186
1383983613974,62.9575
1383983673974,62.8196
1383983733974,63.0087
1383983793974,62.6982
1383983853974,62.7899
1383983913974,62.8832
1383983973974,62.8440
1383984033984,62.8257
1383984093984,62.7813
1383984153984,62.8141
1383984213984,62.8687
1383984273984,62.8471
1383984333984,62.6565
1383984393984,62.7010
1383984453984,62.8433
1383984513984,62.5490
1383984573984,62.8515
1383984633984,62.6033
1383984693984,62.6933
1383984753984,62.8745
1383984813984,62.6166
1383984873984,62.6115
1383984933984,62.7404
1383984993984,62.7928
1383985053984,62.5486
1383985113984,62.8343
1383985173984,62.6098
1383985233984,62.8056
1383985293984,62.6905
1383985353984,62.6894
1383985413984,62.4877
1383985473984,62.6613
1383985533984,62.5942
1383985593984,62.7048
1383985653984,62.7183
1383985713984,62.7036
1383985773984,62.6752
1383985833984,62.8697
1383985893984,62.9720
1383985953984,62.8584
1383986013984,62.8553
1383986073984,62.9539
1383986133984,62.8964
1383986193984,62.7816
1383986253984,62.8843
1383986313984,62.6761
1383986373984,62.9188
1383986433984,62.6776
1383986493984,62.8057
1383986553984,62.7523
1383986613984,62.8187
1383986673984,62.6609
1383986733984,62.7971
1383986793984,62.6930
1383986853984,62.7181
1383986913984,62.8596
1383986973984,62.7000
1383987033984,62.6460
1383987093984,62.8340
1383987153984,62.8768
1383987213984,62.7520
1383987273984,62.9579
1383987333984,62.8283
1383987393984,62.7981
1383987453984,62.8402
1383987513984,62.8265
1383987573984,62.8626
1383987633995,62.8901
1383987693995,62.7845
1383987753995,62.9188
1383987813995,62.6001
1383987873995,62.8560
1383987933995,62.7546
1383987993995,62.8341
1383988053995,62.7713
1383988113995,62.9651
1383988173995,62.7139
1383988233995,63.0686
1383988293995,62.9591
1383988353995,62.8781
1383988413995,62.9467
1383988473995,62.7674
1383988533995,62.8874
1383988593995,62.9030
1383988653995,62.9483
1383988713995,63.0105
1383988773995,62.8349
1383988833995,62.9372
1383988893995,62.9009
1383988953995,62.9044
1383989013995,62.9282
1383989073995,62.9073
1383989133995,62.9316
1383989193995,62.7721
1383989253995,62.8790
1383989313995,62.8059
1383989373995,62.9803
1383989433995,62.8279
1383989493995,62.7530
1383989553995,62.6398
1383989613995,62.7560
1383989673995,62.6738
1383989733995,62.7848
1383989793995,62.9083
1383989853995,62.9352
1383989913995,62.9106
1383989973995,62.8530
1383990033995,62.8725
1383990093995,62.9195
1383990153995,62.7351
1383990213995,62.9680
1383990273995,62.9746
1383990333995,62.7575
1383990393995,63.1189
1383990453995,62.8255
1383990513995,62.9514
1383990573995,62.9433
1383990633995,63.0711
1383990693995,62.7390
1383990753995,63.1472
1383990813995,62.7554
1383990873995,63.0384
1383990933995,63.0918
1383990993995,62.8609
1383991053995,63.0301
1383991113995,63.0691
1383991173995,62.9217
1383991234006,63.1216
1383991294006,62.9632
1383991354006,62.9347
1383991414006,63.2241
1383991474006,63.1408
1383991534006,63.0563
1383991594006,63.0010
1383991654006,63.1572
1383991714006,62.8531
1383991774006,62.9752
1383991834006,63.0763
1383991894006,62.9798
1383991954006,63.0985
1383992014006,63.1736
1383992074006,63.2164
1383992134006,62.9227
1383992194006,63.0807
1383992254006,63.3682
1383992314006,63.3252
1383992374006,63.2468
1383992434006,63.0664
1383992494006,63.1494
1383992554006,62.9940
1383992614006,63.0121
1383992674006,63.2979
1383992734006,63.2415
1383992794006,63.1282
1383992854006,63.2354
1383992914006,63.0404
1383992974006,63.1095
1383993034006,63.2038
1383993094006,63.3180
1383993154006,63.1432
1383993214006,63.2875
1383993274006,63.1264
1383993334006,63.2773
1383993394006,63.2582
1383993454006,63.3949
1383993514006,63.1962
1383993574006,63.6388
1383993634006,63.1561
1383993694006,63.2248
1383993754006,63.1955
1383993814006,63.3890
1383993874006,63.3886
1383993934006,63.4310
1383993994006,63.5183
1383994054006,63.1524
1383994114006,63.3425
1383994174006,63.4237
1383994234006,63.2964
1383994294006,63.2856
1383994354006,63.5252
1383994414006,63.3873
1383994474006,63.5259
1383994534006,63.2002
1383994594006,63.5304
1383994654006,63.3393
1383994714006,63.4227
1383994774006,63.4548
1383994834017,63.4521
1383994894017,63.5295
1383994954017,63.4913
1383995014017,63.2758
1383995074017,63.4612
1383995134017,63.4644
1383995194017,63.2064
1383995254017,63.2273
1383995314017,63.2647
1383995374017,63.4494
1383995434017,63.3496
1383995494017,63.3264
1383995554017,63.4716
1383995614017,63.3824
1383995674017,63.4952
1383995734017,63.4172
1383995794017,63.2808
1383995854017,63.3636
1383995914017,63.2978
1383995974017,63.0477
1383996034017,63.2928
1383996094017,63.3844
1383996154017,63.3347
1383996214017,63.1225
1383996274017,63.1769
1383996334017,63.1918
1383996394017,63.1524
1383996454017,63.1318
1383996514017,63.1853
1383996574017,63.1361
1383996634017,63.2411
1383996694017,62.9664
1383996754017,63.2738
1383996814017,63.1016
1383996874017,62.9844
1383996934017,63.1439
1383996994017,63.2089
1383997054017,63.0239
1383997114017,63.2100
1383997174017,62.9671
1383997234017,63.1169
1383997294017,62.9343
1383997354017,63.0308
1383997414017,63.0788
1383997474017,62.8414
1383997534017,63.0093
1383997594017,63.0315
1383997654017,62.8448
1383997714017,63.0110
1383997774017,63.0182
1383997834017,62.9162
1383997894017,62.9854
1383997954017,63.0811
1383998014017,63.0182
1383998074017,62.9716
1383998134017,62.9486
1383998194017,63.0567
1383998254017,62.9626
1383998314017,63.1314
1383998374017,63.0529
1383998434028,62.9007
1383998494028,63.0790
1383998554028,63.1129
1383998614028,63.0774
1383998674028,63.0282
1383998734028,63.0112
1383998794028,63.1370
1383998854028,63.1702
1383998914028,63.1153
1383998974028,63.0779
1383999034028,62.8861
1383999094028,62.9629
1383999154028,63.2146
1383999214028,63.0998
1383999274028,63.0032
1383999334028,63.1567
1383999394028,62.9364
1383999454028,62.8440
1383999514028,63.0311
1383999574028,63.1998
1383999634028,62.9873
1383999694028,63.0135
1383999754028,63.0159
1383999814028,63.0718
1383999874028,62.8301
1383999934028,62.9591
1383999994028,63.0204
1384000054028,63.0119
1384000114028,63.0800
1384000174028,62.9600
1384000234028,63.0652
1384000294028,62.9569
1384000354028,63.0088
1384000414028,63.0427
1384000474028,63.0867
1384000534028,62.9765
1384000594028,63.0113
1384000654028,63.0132
1384000714028,62.9472
1384000774028,62.9602
1384000834028,62.9136
1384000894028,62.9625
1384000954028,62.9562
1384001014028,63.0549
1384001074028,63.0725
1384001134028,62.8795
1384001194028,62.8282
1384001254028,62.8849
1384001314028,62.9599
1384001374028,62.9619
1384001434028,62.6923
1384001494028,63.0483
1384001554028,62.8638
1384001614028,62.8289
1384001674028,62.7707
1384001734028,62.8959
1384001794028,62.8811
1384001854028,62.9755
1384001914028,62.9838
1384001974028,62.6976
1384002034040,62.8515
1384002094040,62.8216
1384002154040,62.7803
1384002214040,62.8085
1384002274040,62.8777
1384002334040,62.8019
1384002394040,62.7354
1384002454040,62.7828
1384002514040,62.9053
1384002574040,63.0584
1384002634040,62.9918
1384002694040,62.8194
1384002754040,62.8129
1384002814040,62.8563
1384002874040,62.9764
1384002934040,63.0003
1384002994040,62.8785
1384003054040,63.0469
1384003114040,62.8905
1384003174040,62.9997
1384003234040,62.9667
1384003294040,62.9820
1384003354040,62.9984
1384003414040,63.1141
1384003474040,62.9723
1384003534040,63.0685
1384003594040,62.9250
1384003654040,63.1384
1384003714040,62.9154
1384003774040,63.0343
1384003834040,63.0860
1384003894040,63.0733
1384003954040,62.9735
1384004014040,62.9679
1384004074040,63.1087
1384004134040,63.0252
1384004194040,63.0686
1384004254040,62.8635
1384004314040,63.1491
1384004374040,62.9927
1384004434040,63.0272
1384004494040,63.0334
1384004554040,62.9757
1384004614040,63.0775
1384004674040,62.9462
1384004734040,62.7676
1384004794040,63.0873
1384004854040,63.1073
1384004914040,63.2016
1384004974040,63.0925
1384005034040,63.0937
1384005094040,62.9256
1384005154040,62.9300
1384005214040,63.0371
1384005274040,62.8867
1384005334040,62.8248
1384005394040,62.9741
1384005454040,62.9438
1384005514040,62.9993
1384005574040,63.0837
1384005634051,62.9666
1384005694051,63.2623
1384005754051,63.2462
1384005814051,63.1036
1384005874051,62.9773
1384005934051,63.0250
1384005994051,63.1327
1384006054051,63.1059
1384006114051,63.1351
1384006174051,63.1741
1384006234051,63.0367
1384006294051,63.1018
1384006354051,63.0667
1384006414051,63.1017
1384006474051,63.3070
1384006534051,63.1070
1384006594051,63.0209
1384006654051,63.0840
1384006714051,62.9992
1384006774051,63.2081
1384006834051,63.0092
1384006894051,63.2598
1384006954051,63.1601
1384007014051,62.9877
1384007074051,63.0525
1384007134051,62.9881
1384007194051,63.2002
1384007254051,62.9484
1384007314051,63.1549
1384007374051,62.9889
1384007434051,63.1007
1384007494051,62.9492
1384007554051,63.0254
1384007614051,62.8013
1384007674051,63.1530
1384007734051,62.9071
1384007794051,63.2004
1384007854051,63.0870
1384007914051,63.0620
1384007974051,63.1729
1384008034051,62.8230
1384008094051,63.0913
1384008154051,63.0349
1384008214051,63.0271
1384008274051,62.9776
1384008334051,63.1172
1384008394051,62.8782
1384008454051,62.9187
1384008514051,63.0960
1384008574051,63.0986
1384008634051,62.9927
1384008694051,63.1753
1384008754051,63.1259
1384008814051,63.1907
1384008874051,62.9486
1384008934051,62.9732
1384008994051,63.0752
1384009054051,62.9995
1384009114051,62.9403
1384009174051,63.1078
1384009234063,62.9824
1384009294063,62.9464
1384009354063,63.0432
1384009414063,63.1221
1384009474063,62.9776
1384009534063,63.0102
1384009594063,63.1280
1384009654063,63.0685
1384009714063,63.1410
1384009774063,63.2007
1384009834063,63.0952
1384009894063,63.0239
1384009954063,63.1924
1384010014063,63.1136
1384010074063,63.2117
1384010134063,63.0886
1384010194063,63.3526
1384010254063,63.3203
1384010314063,63.1838
1384010374063,63.0912
1384010434063,63.1867
1384010494063,63.0534
1384010554063,63.2029
1384010614063,63.1429
1384010674063,62.9922
1384010734063,63.1729
1384010794063,63.0457
1384010854063,63.0773
1384010914063,62.9000
1384010974063,63.1192
1384011034063,62.9932
1384011094063,62.9492
1384011154063,63.2131
1384011214063,63.1568
1384011274063,63.0826
1384011334063,63.0452
1384011394063,62.9135
1384011454063,62.9651
1384011514063,63.2003
1384011574063,63.0033
1384011634063,63.0755
1384011694063,63.0610
1384011754063,63.2176
1384011814063,63.1997
1384011874063,63.0049
1384011934063,63.1127
1384011994063,63.2597
1384012054063,63.0721
1384012114063,63.0106
1384012174063,63.0041
1384012234063,62.8711
1384012294063,63.0982
1384012354063,63.1143
1384012414063,63.0398
1384012474063,63.1504
1384012534063,63.0194
1384012594063,62.9039
1384012654063,62.9640
1384012714063,63.1788
1384012774063,62.8132
1384012834074,62.8842
1384012894074,63.2559
1384012954074,63.1419
1384013014074,63.0062
1384013074074,62.9541
1384013134074,62.9197
1384013194074,62.8136
1384013254074,62.9919
1384013314074,62.9570
1384013374074,62.9832
1384013434074,63.0261
1384013494074,63.0344
1384013554074,62.8873
1384013614074,63.0055
1384013674074,63.0109
1384013734074,62.8867
1384013794074,63.1231
1384013854074,63.0558
1384013914074,63.1406
1384013974075,62.9971
1384014034075,62.9659
1384014094075,63.0355
1384014154074,62.9350
1384014214074,63.0659
1384014274074,62.8591
1384014334074,63.0969
1384014394074,63.0903
1384014454074,63.0084
1384014514074,63.0962
1384014574074,62.9179
1384014634074,62.9940
1384014694074,62.9746
1384014754074,63.0045
1384014814074,63.0001
1384014874074,62.9605
1384014934074,63.0156
1384014994074,63.0200
1384015054074,62.9505
1384015114074,63.0283
1384015174074,63.0933
1384015234074,63.2571
1384015294075,63.2471
1384015354075,63.1489
1384015414075,63.0689
1384015474075,62.9114
1384015534074,63.0401
1384015594074,63.0447
1384015654074,62.9929
1384015714074,63.2361
1384015774074,63.2234
1384015834074,63.2324
1384015894074,63.3292
1384015954074,63.3230
1384016014074,63.2599
1384016074074,63.1705
1384016134074,63.5021
1384016194074,63.1932
1384016254074,63.2752
1384016314074,63.4288
1384016374074,63.2681
1384016434086,63.2755
1384016494086,63.4361
1384016554086,63.5782
1384016614086,63.1262
1384016674086,63.3994
1384016734086,63.3157
1384016794086,63.4002
1384016854086,63.3310
1384016914086,63.3772
1384016974086,63.2862
1384017034086,63.1170
1384017094086,63.2751
1384017154086,63.6155
1384017214086,63.3288
1384017274086,63.6531
1384017334086,63.5671
1384017394086,63.4410
1384017454086,63.5162
1384017514086,63.3339
1384017574086,63.3705
1384017634086,63.4366
1384017694086,63.4540
1384017754086,63.3822
1384017814086,63.3199
1384017874086,63.3624
1384017934086,63.4556
1384017994086,63.2897
1384018054086,63.3168
1384018114086,63.2034
1384018174086,63.2900
1384018234086,63.2819
1384018294086,63.2841
1384018354086,63.2513
1384018414086,63.4427
1384018474086,63.2937
1384018534086,63.3805
1384018594086,63.5028
1384018654086,63.3460
1384018714086,63.5098
1384018774086,63.2983
1384018834086,63.2999
1384018894086,63.4345
1384018954086,63.4253
1384019014086,63.1014
1384019074086,63.2604
1384019134086,63.3025
1384019194086,63.6926
1384019254086,63.4393
1384019314086,63.2987
1384019374086,63.2939
1384019434086,63.3751
1384019494086,63.2917
1384019554086,63.2673
1384019614086,63.4616
1384019674086,63.3209
1384019734086,63.3704
1384019794086,63.3219
1384019854086,63.3142
1384019914086,63.4173
1384019974086,63.3359
1384020034097,63.2972
1384020094097,63.3735
1384020154097,63.4012
1384020214097,63.0937
1384020274097,63.3955
1384020334097,63.1340
1384020394097,63.2630
1384020454097,63.4267
1384020514097,63.3250
1384020574097,63.3839